Flag for Germany Weather past 2 weeks in Leonberg, Baden-Württemberg, Germany

Now
36 °F

Passing clouds.


Feels Like: 30 °F
Forecast: 28 / 48 °F
Wind: 7 mph from West

Location: Stuttgart-Echterdingen

Current Time: Feb 28, 2015 at 3:35:43 AM

Latest Report: Feb 28, 2015 at 2:50 AM


Visibility: N/A

Pressure: 30.12 "Hg

Humidity: 93%

Dew point: 34 °F

Location of LeonbergLocation

Historic Weather in Leonberg — Graph

°F

Leonberg temperature yesterday

Maximum temperature yesterday: 37 °F (at 8:50 AM)
Minimum temperature yesterday: 32 °F (at 1:50 AM)
Average temperature yesterday: 36 °F

Past Weeks' High & Low Weather Summary

 TemperatureHumidityPressure
High55 °F (Feb 20, 2:20 PM)100% (Feb 13, 2:20 AM)30.69 "Hg (Feb 13, 2:20 AM)
Low23 °F (Feb 13, 7:20 AM)34% (Feb 26, 3:20 PM)29.50 "Hg (Feb 23, 3:20 PM)
Average35 °F83%30.01 "Hg
* Reported Feb 13 2:20 AM — Feb 28 2:20 AM, Leonberg, Weather by CustomWeather, © 2015

Note: Actual official high and low records may vary slightly from our data, if they occured in-between our weather recording intervals... More about our weather records

Advertising

Leonberg weather history for previous 24 hours

 ConditionsComfort  
Time TempWeatherWind HumidityBarometerVisibility
2:20 AM
Sat, Feb 28
36 °FPassing clouds.8 mph93%30.12 "HgN/A
1:50 AM36 °FLight rain. Passing clouds.8 mph93%30.12 "HgN/A
1:20 AM36 °FLight rain. Partly cloudy.10 mph93%30.12 "Hg4 mi
12:50 AM36 °FLight rain. Partly cloudy.12 mph93%30.12 "Hg4 mi
12:20 AM36 °FLight rain. Partly cloudy.10 mph93%30.12 "Hg6 mi
11:50 PM
Fri, Feb 27
36 °FLight rain. Partly cloudy.12 mph93%30.12 "Hg4 mi
11:20 PM36 °FLight rain. Partly cloudy.12 mph93%30.12 "Hg5 mi
10:50 PM36 °FLight rain. Partly cloudy.12 mph100%30.09 "Hg5 mi
10:20 PM36 °FLight rain. Partly cloudy.13 mph100%30.09 "Hg5 mi
9:50 PM36 °FLight rain. Partly cloudy.14 mph100%30.09 "Hg5 mi
9:20 PM36 °FLight rain. Passing clouds.13 mph100%30.09 "Hg5 mi
8:50 PM36 °FLight rain. Passing clouds.9 mph100%30.07 "Hg5 mi
8:20 PM36 °FLight rain. Passing clouds.14 mph100%30.07 "Hg5 mi
7:50 PM36 °FLight rain. Passing clouds.14 mph100%30.04 "Hg6 mi
7:20 PM36 °FLight rain. Passing clouds.13 mph100%30.04 "Hg5 mi
6:50 PM37 °FLight rain. Passing clouds.14 mph93%30.01 "Hg5 mi
6:20 PM37 °FLight rain. Passing clouds.13 mph93%30.01 "Hg5 mi
5:50 PM37 °FLight rain. Partly sunny.12 mph93%29.98 "Hg4 mi
5:20 PM37 °FLight rain. Partly sunny.9 mph93%29.95 "Hg4 mi
4:50 PM37 °FLight rain. Partly sunny.9 mph93%29.95 "Hg6 mi
4:20 PM37 °FLight rain. Partly sunny.9 mph93%29.92 "Hg6 mi
3:50 PM37 °FLight rain. Partly sunny.8 mph93%29.92 "Hg5 mi
3:20 PM37 °FLight rain. Partly sunny.8 mph93%29.89 "Hg6 mi
2:50 PM37 °FLight rain. Partly sunny.8 mph93%29.89 "Hg5 mi
2:20 PM37 °FLight rain. Broken clouds.8 mph93%29.86 "Hg4 mi
1:50 PM37 °FLight rain. Broken clouds.6 mph93%29.86 "Hg4 mi
1:20 PM37 °FLight rain. More clouds than sun.5 mph93%29.86 "Hg4 mi
12:50 PM36 °FLight rain. More clouds than sun.2 mph100%29.86 "Hg4 mi
12:20 PM36 °FLight rain. More clouds than sun.1 mph93%29.83 "Hg4 mi
11:50 AM36 °FRain. More clouds than sun.2 mph93%29.83 "Hg4 mi
11:20 AM36 °FRain. Broken clouds.2 mph93%29.83 "Hg4 mi
10:50 AM36 °FRain. More clouds than sun.3 mph93%29.83 "Hg4 mi
10:20 AM36 °FRain. Broken clouds.5 mph93%29.80 "Hg4 mi
9:50 AM37 °FLight rain. Partly sunny.2 mph87%29.80 "Hg4 mi
9:20 AM37 °FLight rain. Broken clouds.3 mph81%29.80 "HgN/A
8:50 AM37 °FLight rain. Partly sunny.No wind70%29.77 "HgN/A
8:20 AM36 °FLight rain. Broken clouds.1 mph75%29.77 "HgN/A
7:50 AM36 °FLight rain. Broken clouds.1 mph70%29.77 "HgN/A
7:20 AM36 °FBroken clouds.1 mph70%29.77 "HgN/A
6:50 AM34 °FPassing clouds.2 mph81%29.77 "HgN/A
6:20 AM34 °FClear.3 mph81%29.77 "Hg10 mi
5:20 AM34 °FClear.1 mph75%29.80 "Hg10 mi
4:20 AM34 °FClear.1 mph81%29.80 "Hg10 mi
3:50 AM34 °FClear.2 mph81%29.80 "Hg10 mi
3:20 AM34 °FClear.1 mph75%29.83 "Hg10 mi
Weather by CustomWeather, © 2015

See weather overviewHow to use our weather pages